Location: Albuquerque Trailhead
(34.7934°N, 106.3736°W)
Time: 00:45:30
(UTC+00:00)

Sich 1 - Pass Details

Date: 20 June 2021
Orbit: 593 x 626 km, 82.5° (Epoch: 01 August)

Event Time Altitude Azimuth Distance (km) Brightness Sun altitude
Exits shadow 10:52:53 - 179° (S) 2,739 6.0 -10.9°
Reaches altitude 10° 10:54:47 10° 176° (S) 1,965 5.3 -10.6°
Maximum altitude 10:59:06 67° 94° (E) 673 3.4 -9.9°
Drops below altitude 10° 11:03:29 10° 13° (NNE) 1,996 6.5 -9.2°
Sets 11:05:45 0° 10° (N) 2,910 7.3 -8.8°
